GFSSE_925_thetae_159.txt.gz
Theta_e
339 336 337 336 336 336 333 332 331 332 334 335 335 331 331 333 330 329 329 331 332 334 334 334 334 333 333 332 330 324 322 322 325 328 328 327 326 327 327 326 323 327 326
338 336 336 336 336 335 333 331 329 328 330 333 332 331 332 333 333 328 328 328 329 330 332 332 331 332 331 328 326 323 322 321 323 326 325 324 325 326 327 326 323 327 329
340 336 335 336 335 335 334 332 330 327 328 328 331 331 330 330 329 328 326 327 328 328 331 329 328 326 329 330 326 322 322 321 322 322 323 323 321 324 325 325 323 324 326
339 337 336 336 336 335 334 331 330 328 327 330 329 328 331 329 329 328 326 325 328 330 330 330 329 325 325 330 326 323 321 321 322 321 322 323 323 324 324 324 324 324 323
338 338 338 335 335 334 334 331 330 329 326 328 332 328 328 327 328 327 326 325 325 326 326 328 327 327 327 331 326 322 321 322 322 321 322 321 323 324 323 323 324 322 321
339 339 338 337 335 334 334 332 330 329 326 323 330 331 329 329 327 327 327 325 324 324 325 324 323 325 330 330 326 324 322 321 322 321 322 321 322 323 322 321 322 321 321
339 339 338 334 335 335 334 332 330 328 325 324 330 332 331 328 327 326 325 325 325 323 324 323 318 323 325 328 327 325 324 322 320 321 321 321 321 321 319 316 321 320 320
338 338 338 334 335 335 334 333 330 328 326 324 329 331 328 324 325 327 326 325 325 324 323 323 322 315 320 323 324 323 323 322 320 322 322 321 320 321 320 321 316 321 320
339 339 336 337 334 335 335 334 331 329 328 326 324 328 327 326 325 327 328 326 325 324 324 323 324 321 314 313 315 317 318 319 319 318 321 321 321 321 322 322 320 320 320
338 338 338 336 335 336 335 334 333 330 329 328 325 324 327 327 328 327 325 327 325 324 324 324 324 323 322 317 316 314 314 313 313 315 317 321 321 321 323 322 322 321 320
338 338 338 337 336 335 335 334 333 334 330 329 328 325 322 325 326 325 325 324 325 325 324 323 323 324 323 323 322 322 321 322 319 313 321 322 321 322 324 323 323 322 321
338 338 337 338 337 337 335 335 334 334 333 331 330 329 327 325 322 325 327 327 326 326 325 324 323 323 322 321 322 322 323 324 322 316 319 320 321 321 324 324 324 324 323
337 338 338 338 338 337 336 335 334 334 333 332 331 331 330 330 329 326 326 326 326 326 325 324 324 323 323 324 324 323 324 323 322 321 320 319 319 320 324 324 324 324 325
323 323 330 338 337 338 337 335 334 334 333 333 332 331 330 330 330 329 329 328 327 325 326 326 325 324 324 325 325 325 324 324 323 323 322 320 320 319 322 324 324 324 325
321 322 322 326 337 335 337 337 335 334 333 333 333 332 331 330 330 329 329 329 328 327 327 326 326 326 325 325 325 325 324 324 323 323 323 322 321 320 320 323 323 324 325
321 321 321 322 328 336 336 337 337 336 334 333 333 333 332 332 331 330 329 329 328 328 328 327 326 326 326 325 325 325 325 324 323 323 323 323 323 323 322 321 323 324 325
321 320 320 321 325 330 334 335 336 337 336 334 333 332 332 332 332 332 330 330 330 329 328 328 328 327 327 326 326 325 325 325 324 324 324 324 325 324 324 324 323 323 324
318 318 317 317 318 320 322 325 331 333 335 336 335 333 331 331 331 332 332 331 331 330 330 330 329 329 328 327 327 326 326 326 326 325 325 326 326 326 326 325 325 324 323
315 316 316 316 317 318 317 319 324 327 329 333 334 333 332 332 331 331 331 330 332 331 330 331 331 330 329 328 328 327 327 326 325 325 325 325 324 325 325 325 325 325 325
313 313 313 314 315 318 321 317 319 323 326 330 331 331 333 333 333 332 331 330 329 329 329 330 329 329 329 328 327 325 324 323 323 324 323 322 323 324 324 324 324 324 324
309 309 309 311 312 314 320 324 324 325 328 331 330 331 331 331 330 331 331 330 330 328 328 327 327 327 326 325 325 325 324 323 323 323 322 322 323 323 323 323 324 324 324
305 305 306 308 311 314 317 324 328 327 324 324 322 323 325 324 324 325 324 324 323 325 324 323 323 325 326 325 324 323 323 321 322 322 322 322 323 323 322 322 323 322 322
303 302 303 305 309 312 316 321 325 323 318 315 314 314 312 313 313 312 314 314 314 314 313 313 313 314 317 320 320 321 321 322 319 320 319 320 321 320 320 321 320 321 321
300 300 300 301 305 307 312 316 316 310 306 305 304 304 306 306 303 302 303 304 305 306 307 307 307 309 310 313 314 316 316 317 319 318 318 317 318 318 318 320 320 320 320
298 298 298 298 299 302 304 305 305 303 302 302 302 302 300 298 296 296 297 297 298 298 299 300 304 306 307 307 309 311 312 311 311 313 314 313 311 313 312 317 312 318 319
296 296 296 296 295 297 299 299 299 299 298 298 297 297 295 293 293 293 294 294 295 296 297 299 300 299 300 302 302 300 301 304 303 304 306 306 307 308 301 310 310 312 312

GFSSE_925_thetae_162.txt.gz
Theta_e
337 337 337 337 337 334 331 330 329 331 333 335 334 334 334 333 329 328 331 333 334 334 334 334 334 333 334 330 325 323 323 325 326 326 326 326 328 327 327 322 325 326 325
337 337 336 336 337 334 331 329 326 329 333 334 333 333 334 334 332 329 329 329 329 332 332 331 332 333 330 327 323 322 321 322 323 324 324 325 326 327 327 324 326 329 325
336 336 335 335 334 334 332 330 327 327 330 332 333 332 332 330 330 326 325 327 328 331 332 330 330 329 329 327 323 321 321 322 322 323 323 322 324 325 325 324 323 327 326
338 336 335 335 334 334 332 330 328 326 329 331 331 332 332 329 329 326 324 326 330 330 331 330 327 323 325 329 323 321 321 322 321 321 322 323 323 324 324 324 324 325 324
337 336 335 335 334 334 333 330 329 327 326 331 329 329 331 331 328 326 325 324 327 327 328 328 325 327 329 329 323 322 320 322 321 321 320 321 322 324 324 323 324 322 321
338 338 337 335 334 334 333 331 330 328 325 325 331 327 327 329 329 327 326 325 324 323 325 322 323 328 330 329 325 324 321 321 321 321 321 321 321 322 322 317 320 321 321
339 338 338 335 334 334 333 331 330 328 325 323 330 330 330 328 327 326 326 325 324 324 322 320 319 323 327 328 327 325 324 322 320 321 321 321 320 321 321 316 320 320 320
338 338 337 335 334 334 334 332 330 328 326 323 330 332 329 326 326 326 325 324 324 324 323 321 322 315 319 322 322 322 322 321 320 319 322 321 321 320 322 320 317 321 319
338 338 337 336 334 334 334 333 331 328 327 325 326 329 329 326 325 326 327 326 326 325 324 323 323 323 316 313 314 314 315 315 315 316 320 321 321 322 323 323 320 320 321
338 338 337 335 334 334 334 334 333 330 328 327 324 324 327 326 327 326 327 327 326 325 323 323 324 324 322 320 317 316 316 315 313 312 314 317 321 322 324 324 323 322 321
338 337 337 336 336 335 335 334 333 333 330 329 328 325 323 325 325 327 325 324 325 325 324 324 323 323 323 323 322 322 322 320 322 321 315 320 321 322 324 325 324 324 323
338 338 337 337 337 336 335 334 333 333 332 332 330 328 327 325 323 323 325 327 326 325 325 325 324 323 323 323 322 322 322 322 324 322 319 317 319 321 324 325 325 324 324
337 337 337 337 337 337 336 334 334 333 332 331 331 331 330 329 330 325 325 326 326 326 326 325 325 324 323 323 323 324 324 323 323 323 322 321 320 319 323 324 325 326 325
334 333 337 337 337 337 337 335 334 333 332 332 332 331 330 329 329 328 328 327 328 327 326 325 326 325 325 324 324 325 325 324 324 323 323 323 322 321 321 323 324 325 326
321 321 322 326 337 337 337 336 335 335 333 333 332 331 331 331 330 329 328 328 327 327 327 327 327 326 326 325 325 325 325 324 324 324 323 323 323 323 323 323 323 324 325
320 320 321 322 325 336 337 336 336 336 335 334 333 331 331 332 331 330 330 328 328 327 327 327 326 327 326 326 326 325 325 325 325 325 324 324 324 324 324 323 325 325 326
319 320 320 321 325 331 336 336 336 336 336 335 334 333 331 331 331 331 331 331 330 329 330 329 328 328 328 327 327 327 326 326 325 325 325 325 325 325 325 325 325 325 326
316 317 317 319 319 319 321 324 327 333 335 336 336 332 332 331 330 330 331 331 332 331 331 330 330 329 329 329 328 328 328 327 327 326 325 324 324 324 324 324 325 325 325
314 315 316 316 316 317 317 317 320 324 327 330 334 332 332 332 331 331 331 331 330 330 331 330 330 330 329 328 328 327 327 325 323 322 322 322 323 323 322 323 323 323 323
312 312 312 312 313 314 315 319 317 321 326 329 331 331 332 333 333 332 332 331 330 330 328 327 328 328 328 326 326 325 323 323 323 323 323 323 322 322 322 323 323 323 323
308 309 309 310 311 313 314 321 323 325 327 329 329 329 329 330 330 331 329 329 329 328 327 327 326 326 326 326 325 324 323 320 321 321 322 321 321 321 322 321 321 322 321
304 305 306 309 312 314 317 323 325 322 319 323 323 324 322 324 324 324 322 322 322 322 321 320 321 322 323 322 323 321 318 318 320 318 318 319 318 321 320 319 319 319 320
301 301 303 306 310 312 316 323 320 316 314 315 314 313 311 312 312 312 312 312 313 313 312 311 311 312 313 318 316 319 318 316 316 318 316 317 315 318 316 315 317 317 318
299 300 300 303 306 308 312 318 319 312 307 303 303 303 302 301 302 303 304 304 306 304 305 305 306 308 310 310 312 314 313 314 317 315 316 312 314 308 307 310 310 314 314
298 299 299 299 302 304 306 307 308 306 304 301 301 300 298 296 296 296 297 298 298 298 299 301 302 304 306 306 306 306 306 307 305 306 308 306 302 304 306 304 308 308 305
296 296 297 297 296 299 301 302 303 302 300 300 298 298 294 293 292 293 294 294 295 297 298 298 298 298 298 298 298 298 299 301 300 300 300 300 300 299 300 303 303 304 298

GFSSE_925_thetae_165.txt.gz
Theta_e
337 337 337 337 335 332 329 327 328 332 335 334 334 333 332 330 330 329 330 333 334 334 334 334 334 334 331 328 326 324 326 326 326 326 326 328 328 328 326 324 324 325 324
336 336 338 337 337 332 329 326 327 332 333 333 331 334 334 331 329 328 328 327 332 332 332 332 333 332 328 324 322 323 322 322 322 323 323 323 326 328 325 322 329 329 327
336 336 336 337 336 332 330 326 325 329 333 332 332 334 334 332 329 326 326 328 332 333 331 331 329 330 327 324 322 321 321 321 321 322 322 322 324 325 325 324 326 327 327
336 335 335 335 334 333 331 328 324 328 331 332 329 333 333 330 327 324 324 327 330 332 331 330 328 324 328 325 322 320 321 321 320 321 322 322 323 324 324 324 323 325 323
337 335 335 334 334 334 331 330 327 326 330 330 330 331 332 331 330 325 324 327 329 329 326 326 324 323 328 327 322 321 321 321 321 321 320 321 322 323 324 323 323 322 321
336 336 335 334 334 333 332 330 329 326 324 330 330 331 332 331 329 327 326 324 323 323 324 320 324 328 330 328 324 323 321 320 321 320 321 321 321 322 323 320 319 320 321
337 337 336 335 334 333 333 330 329 328 325 322 330 329 329 329 330 327 326 325 323 324 322 318 320 325 329 328 327 325 323 322 320 319 321 320 320 322 323 321 317 319 320
337 338 337 335 334 333 333 332 329 328 325 323 328 331 331 328 327 326 326 325 324 324 324 320 321 317 317 321 322 322 321 320 319 319 319 321 320 322 323 323 319 321 320
337 337 337 335 333 333 333 332 330 328 327 325 326 331 330 327 325 326 327 326 326 326 324 323 322 322 322 315 313 312 312 312 313 313 316 319 320 321 324 324 323 321 321
337 337 336 335 335 333 333 333 332 330 328 327 324 326 328 327 325 325 327 327 327 327 325 323 323 323 323 322 321 321 320 320 319 318 316 313 317 320 324 324 324 324 323
338 338 337 335 334 333 334 333 333 332 330 328 327 325 323 325 325 326 327 325 325 326 325 324 324 323 322 323 322 322 321 322 322 322 322 318 316 320 324 325 325 325 325
337 338 337 336 335 335 335 334 333 332 331 332 331 329 327 325 323 323 324 324 326 325 325 325 325 324 324 323 322 322 323 323 322 323 323 322 319 318 323 325 325 326 326
336 337 337 337 336 336 335 334 333 332 331 331 330 330 330 329 329 329 325 323 325 326 326 326 325 325 324 323 323 323 323 324 324 324 323 323 323 321 322 324 324 325 326
336 336 336 337 337 336 336 335 334 333 332 331 331 331 329 329 328 328 327 327 327 327 328 327 326 326 326 325 325 324 324 324 324 324 324 324 323 323 323 324 325 325 325
326 328 326 334 337 337 336 336 335 334 333 332 331 330 330 330 329 328 328 327 327 326 326 326 326 326 326 326 326 325 325 325 325 325 325 324 324 324 323 324 326 327 327
319 319 320 322 325 335 336 336 336 335 334 334 333 332 331 329 329 330 329 330 329 327 327 326 326 326 326 326 325 325 325 324 324 324 324 324 325 325 325 325 325 326 327
318 319 320 321 324 326 331 336 336 336 335 335 334 333 331 331 330 328 328 330 330 330 329 329 330 329 328 328 328 326 325 325 325 324 324 323 323 323 324 324 324 324 324
317 318 318 319 319 322 327 332 333 333 334 335 335 332 331 330 330 330 330 329 329 331 331 331 330 330 329 329 328 329 328 327 326 325 322 322 322 323 323 323 322 322 323
314 315 315 316 316 317 317 318 318 321 325 328 332 334 333 332 332 332 331 331 331 331 330 330 330 329 329 328 326 326 325 324 323 323 322 322 322 322 322 322 322 322 322
311 312 312 312 313 313 314 315 319 319 325 327 329 331 332 332 332 332 331 330 330 331 330 329 327 327 327 327 326 325 324 323 323 321 321 321 320 321 321 321 320 320 319
308 308 309 310 311 313 313 319 323 322 325 326 326 326 327 327 328 330 329 328 328 328 328 327 326 325 325 325 325 324 322 320 319 318 319 317 319 319 319 317 316 317 317
304 305 307 310 312 314 316 321 321 320 320 321 320 321 321 325 324 323 323 323 323 323 323 322 322 321 322 322 322 319 316 316 317 316 316 315 316 316 316 311 311 314 313
302 302 304 307 309 313 319 320 319 318 315 313 311 314 313 313 313 311 312 313 314 314 315 314 313 313 313 316 316 317 314 313 313 316 314 314 312 308 303 304 310 307 304
300 300 300 304 307 310 316 318 316 315 309 306 306 306 304 304 304 303 305 306 307 306 306 306 307 308 309 310 311 312 312 312 312 310 313 312 308 299 299 307 304 302 298
298 298 298 300 303 305 309 312 313 312 307 304 303 302 299 299 298 298 298 298 299 299 300 301 302 304 305 305 304 304 304 306 305 305 307 303 297 298 301 303 301 300 293
296 296 297 298 299 301 304 305 306 304 301 301 300 298 295 294 294 294 294 295 296 297 297 297 298 298 298 299 298 298 298 298 297 298 297 297 296 296 301 299 297 294 289

GFSSE_925_thetae_171.txt.gz
Theta_e
337 336 337 336 334 332 325 327 333 333 334 334 334 333 331 330 328 328 331 333 332 331 332 332 333 331 330 329 328 327 323 322 322 322 324 329 327 325 328 325 324 326 327
335 336 336 336 335 329 324 326 333 333 332 332 332 332 331 329 327 326 330 331 331 329 330 331 331 330 327 325 325 323 319 319 320 320 320 321 325 324 324 327 329 328 326
335 336 336 336 333 329 324 324 328 330 330 330 333 333 332 329 328 328 331 330 329 329 328 328 330 329 326 325 323 320 318 319 319 319 320 321 324 324 323 324 327 326 325
334 336 336 336 332 330 326 322 324 327 327 332 335 332 331 328 326 328 328 330 329 330 329 329 329 328 326 323 321 320 319 319 319 318 318 320 322 324 324 323 324 325 323
334 335 336 336 333 331 328 325 325 327 327 326 329 331 328 327 325 325 327 328 325 327 327 328 329 327 328 323 322 322 320 319 319 319 319 319 320 323 324 323 319 320 319
334 334 334 334 333 332 330 328 325 325 328 328 328 327 329 330 327 325 325 324 323 323 319 319 330 329 328 327 326 324 322 321 320 318 318 319 319 320 324 323 320 317 320
335 334 334 334 335 333 331 329 328 326 323 327 330 328 327 328 328 326 325 324 323 323 322 317 318 324 326 325 325 322 320 319 318 316 316 317 319 319 325 324 323 321 322
335 335 335 334 334 333 332 330 329 328 325 323 327 329 329 328 327 326 326 325 325 324 324 322 321 320 320 318 314 313 313 313 313 314 313 313 315 319 323 324 324 323 321
336 336 336 335 334 333 332 332 330 328 327 325 323 330 331 330 327 325 326 327 326 326 326 324 322 322 322 322 321 321 321 320 320 320 319 321 319 314 322 325 324 324 324
337 337 336 335 334 333 332 332 332 330 328 327 325 325 328 329 327 325 324 325 326 327 327 326 325 324 324 323 322 322 322 322 322 321 321 322 321 316 318 324 325 326 327
337 337 336 335 333 333 332 332 332 332 330 328 327 326 324 324 325 325 324 326 325 324 324 325 325 325 325 324 324 323 322 322 323 323 323 322 322 322 323 324 325 326 326
336 336 336 336 334 333 332 333 333 332 331 331 330 330 329 327 326 325 324 323 323 323 324 325 325 325 325 324 324 324 323 323 323 323 323 323 323 323 324 326 326 326 326
334 335 335 335 335 334 334 334 334 332 331 331 330 330 329 328 329 327 326 326 326 326 326 326 326 326 325 325 325 325 325 325 324 324 324 324 324 324 324 325 327 327 327
333 333 334 335 335 335 335 334 334 334 333 332 331 330 329 328 327 327 326 326 326 325 325 325 324 324 325 325 325 324 324 324 323 323 323 323 323 323 323 323 324 327 327
332 332 332 333 334 335 335 335 335 335 334 333 332 331 330 330 328 326 326 327 327 327 326 325 325 325 324 324 324 324 324 324 324 323 323 323 323 323 322 322 323 325 326
330 322 322 325 327 328 331 334 335 335 335 335 333 332 332 331 330 329 327 326 326 326 327 329 329 327 327 326 326 326 327 326 326 326 326 326 325 323 321 321 322 323 325
317 317 318 319 320 322 323 326 330 333 334 334 334 333 332 332 331 330 329 328 328 328 327 327 328 329 329 328 327 328 328 328 327 326 325 324 323 322 322 322 321 322 323
315 316 317 319 319 320 322 324 327 331 333 333 333 333 331 332 332 332 331 330 330 329 328 327 327 326 326 326 327 326 327 325 324 324 323 323 321 321 321 320 320 320 319
314 315 315 315 315 316 315 316 318 319 322 324 326 329 331 331 331 331 331 329 329 328 329 327 327 327 326 324 325 324 323 324 324 324 321 320 318 319 318 317 317 314 312
311 311 312 312 312 312 312 313 315 318 319 320 321 322 325 325 327 328 329 329 328 328 326 326 327 327 326 325 324 323 322 322 321 319 318 317 316 315 314 314 311 310 310
308 308 309 309 310 312 313 315 318 317 316 316 318 319 319 322 323 325 323 323 325 325 324 323 322 321 322 322 321 321 319 317 317 315 314 312 310 309 309 306 302 299 296
304 305 307 308 310 312 315 318 318 316 315 315 316 318 317 317 318 319 319 321 319 319 318 316 315 316 316 317 318 316 319 315 313 310 307 303 303 304 302 298 295 292 290
302 303 305 307 309 314 317 317 318 317 315 312 309 310 309 309 310 310 310 310 310 311 311 311 311 311 311 311 313 315 318 316 312 310 303 299 302 301 298 294 290 288 287
299 300 302 305 308 313 316 316 315 315 312 308 307 304 304 304 305 304 304 305 303 303 303 303 303 304 305 306 307 310 311 311 312 312 305 297 299 297 294 291 288 286 285
298 298 299 301 305 307 313 313 313 312 309 304 302 301 300 300 299 299 299 298 298 298 297 297 298 298 300 301 301 301 303 306 306 308 310 303 296 295 293 291 288 285 284
297 297 297 299 300 302 305 307 308 306 304 302 301 300 299 297 295 295 294 295 295 296 296 296 296 296 296 296 295 295 295 295 296 297 300 297 295 295 294 291 289 285 283

GFSSE_925_thetae_174.txt.gz
Theta_e
338 340 337 334 336 332 331 333 334 334 334 335 334 334 332 331 332 333 333 333 332 332 333 333 332 332 331 328 323 320 320 321 320 320 327 327 325 327 329 325 327 328 330
338 339 337 334 331 328 326 332 333 332 332 332 331 332 331 329 329 331 331 331 330 329 330 330 330 330 328 325 321 319 318 319 319 319 321 322 324 324 327 329 328 327 326
338 339 339 334 330 325 323 330 333 331 329 332 333 332 329 328 328 331 330 329 329 328 328 330 331 328 326 324 322 319 318 319 319 318 321 323 324 324 324 327 327 326 324
339 339 339 334 330 326 322 324 326 326 327 333 334 331 326 326 329 329 329 331 329 329 329 330 330 328 326 325 323 320 319 318 317 318 320 321 322 325 324 323 324 323 321
338 338 339 335 332 328 325 322 325 325 327 334 333 327 326 325 324 327 325 324 326 326 328 330 329 328 326 324 324 323 321 320 319 320 320 322 322 323 325 323 320 320 318
338 338 337 335 333 330 328 325 324 326 327 326 326 325 330 329 327 325 324 324 324 323 322 327 331 329 327 327 326 324 321 319 319 320 320 320 322 319 326 324 321 317 317
338 338 338 334 333 332 330 328 326 324 325 329 327 326 329 328 328 326 325 324 323 323 320 319 319 323 323 320 319 317 315 313 316 317 317 318 320 319 322 324 324 323 320
338 338 338 334 335 334 332 330 329 327 325 322 329 328 327 328 328 327 326 325 325 325 324 322 321 321 321 321 319 317 318 319 320 321 320 319 316 314 321 325 326 324 323
338 338 339 338 335 333 332 331 330 328 327 325 324 330 330 330 327 326 325 327 327 326 326 325 323 323 323 322 321 321 321 321 322 322 322 322 321 316 321 325 326 326 327
338 338 339 339 338 337 336 332 331 330 328 326 324 327 330 329 328 326 324 325 326 326 327 327 325 324 324 324 324 323 322 322 324 324 323 323 321 321 323 323 325 326 326
339 338 338 338 337 336 336 335 332 331 330 328 327 326 325 328 328 326 325 324 325 325 324 325 325 325 325 325 325 324 323 325 325 324 325 324 323 323 325 327 326 326 327
338 338 338 338 337 336 335 335 335 335 334 332 331 331 330 329 328 326 326 326 324 323 323 325 325 326 326 328 328 327 326 326 326 326 325 324 324 324 324 326 327 328 328
336 337 337 337 337 336 336 336 336 335 334 333 332 331 331 330 330 329 328 328 327 326 327 327 325 324 325 325 325 327 326 326 326 326 325 323 323 323 323 323 326 328 328
335 335 337 337 337 337 336 336 336 336 335 334 333 332 330 330 329 326 326 326 326 326 325 325 325 324 324 323 324 324 326 325 324 323 323 323 323 323 323 323 326 327 327
334 334 333 335 336 336 337 337 337 336 336 336 334 331 330 330 329 328 327 326 326 326 326 326 326 325 325 324 324 324 324 325 325 325 325 325 325 324 323 322 321 323 324
331 325 322 325 330 331 334 335 336 336 336 336 335 333 331 331 331 330 329 327 326 326 326 326 326 327 328 327 326 326 326 327 327 327 327 326 324 324 323 322 322 324 326
321 320 319 319 320 321 324 329 332 333 333 335 335 333 333 332 332 332 332 331 330 328 328 328 328 328 328 327 327 327 326 327 327 325 325 324 323 322 322 322 323 323 323
317 317 317 318 318 319 320 322 323 326 329 330 331 332 332 331 334 333 333 330 330 328 328 329 328 328 328 327 326 326 325 325 325 325 324 323 322 321 318 320 320 317 316
314 314 315 316 316 316 316 316 318 320 322 323 324 325 328 327 329 331 331 331 329 329 329 328 328 328 329 327 326 327 325 323 323 323 321 319 318 316 315 316 316 314 309
311 312 312 313 313 313 313 314 319 318 317 316 317 318 320 321 322 325 325 326 326 325 325 324 325 325 325 325 324 325 324 321 321 321 317 314 313 313 312 310 308 306 305
306 307 308 309 311 312 315 320 321 319 315 314 315 316 318 319 321 322 321 321 321 319 321 321 319 318 322 320 321 322 320 317 315 311 310 311 305 301 298 297 296 295 294
304 304 306 307 309 312 314 317 319 315 312 315 315 316 315 313 314 315 314 314 314 314 313 313 313 315 318 316 319 320 320 317 311 306 306 306 302 298 294 292 292 291 291
303 302 304 306 309 314 315 316 314 314 312 309 306 308 308 307 308 308 308 308 308 308 308 308 308 309 313 313 313 317 320 319 315 308 303 304 301 297 293 290 289 289 289
300 300 302 306 309 314 316 315 315 316 314 305 303 304 303 303 303 304 303 302 301 301 301 300 300 302 307 308 309 309 311 311 313 314 303 301 298 296 293 290 289 287 287
298 299 302 304 307 311 313 313 311 309 306 303 301 300 300 300 300 299 297 297 297 297 297 297 297 299 300 302 302 303 305 307 307 309 311 303 299 296 292 290 288 287 286
296 297 298 300 303 305 308 310 310 307 304 301 299 298 297 296 296 294 294 294 295 295 295 295 296 296 297 297 297 296 297 299 300 302 305 304 299 296 293 290 288 286 285